User: anonymous   Login
Location: Caltech
(34.1382°N, 118.1253°W)
Time: 10:01:45
(UTC-07:00)
Language:

IRS-1A Rocket - Orbit

View from above orbital plane
View from above orbital plane
View from above satellite
View from above satellite

Ground track
Ground track

The orbit data is extracted from the following two-line orbital elements,

1 18961U 88021B   16243.20978582  .00000185  00000-0  15379-3 0  9993
2 18961  99.2942 239.5378 0054637 304.9533 109.8736 14.00522265454689
Epoch (UTC): 30 August 2016 05:02:05
Eccentricity: 0.0054637
inclination: 99.2942°
perigee height: 852 km
apogee height: 932 km
right ascension of ascending node: 239.5378°
argument of perigee: 304.9533°
revolutions per day: 14.00522265
mean anomaly at epoch: 109.8736°
orbit number at epoch: 45468

The dashed part of the orbit path shows where the satellite is in the earth's shadow,  

DLR